Webb City, MO

9:29 AM CDT on August 25, 2016 (GMT -0500)
Joplin Regional

Weather History for KJLN - March, 2014

Change the Weather History Date:

Sunday, March 30, 2014

  Actual Average Record
Temperature  
Mean Temperature 56 °F 53 °F  
Max Temperature 73 °F 65 °F 83 °F (1967)
Min Temperature 38 °F 42 °F 17 °F (1964)
Degree Days  
Heating Degree Days 9 12  
Month to date heating degree days 658 496  
Since 1 July heating degree days 4507 3750  
Cooling Degree Days 0 1  
Month to date cooling degree days 0 4  
Year to date cooling degree days 0 5  
Growing Degree Days 6 (Base 50)    
Moisture  
Dew Point 33 °F    
Average Humidity 45    
Maximum Humidity 70    
Minimum Humidity 20    
Precipitation  
Precipitation 0.00 in 0.13 in 1.07 in (1985)
Month to date precipitation 1.88 3.29  
Year to date precipitation 2.73 7.64  
Sea Level Pressure  
Sea Level Pressure 30.07 in    
Wind  
Wind Speed 14 mph (SSE)    
Max Wind Speed 23 mph    
Max Gust Speed 29 mph    
Visibility 10 miles    
Events      
T = Trace of Precipitation, MM = Missing Value Source: NWS Daily Summary

Daily Weather History Graph

Daily Weather History Graph

Search for Another Location

Airport or City:

Trip Planner

Search our weather history database for the weather conditions in past years. The results will help you decide how hot, cold, wet, or windy it might be!

Date:

Astronomy

Mar. 30, 2014 Rise Set
Actual Time 7:06 AM CDT 7:38 PM CDT
Civil Twilight 6:40 AM CDT 8:04 PM CDT
Nautical Twilight 6:09 AM CDT 8:35 PM CDT
Astronomical Twilight 5:38 AM CDT 9:07 PM CDT
Moon 6:52 AM CDT (3/30) 7:51 PM CDT (3/30)
Length of Visible Light 13h 24m
Length of Day
12h 32m
Waning Crescent, 0% of the Moon is Illuminated
Mar 30
Waning Crescent
Mar 30
New
Apr 7
First Quarter
Apr 15
Full
Apr 22
Last Quarter

Hourly Weather History & Observations

Time (CDT) Temp. Windchill Dew Point Humidity Pressure Visibility Wind Dir Wind Speed Gust Speed Precip Events Conditions
12:53 AM 44.1 °F 39.5 °F 32.0 °F 63% 30.25 in 8.0 mi SE 8.1 mph - N/A   Clear
1:53 AM 41.0 °F 37.1 °F 30.9 °F 67% 30.23 in 8.0 mi SE 5.8 mph - N/A   Clear
2:53 AM 43.0 °F 38.2 °F 32.0 °F 65% 30.21 in 9.0 mi SE 8.1 mph - N/A   Clear
3:53 AM 43.0 °F 37.2 °F 32.0 °F 65% 30.17 in 10.0 mi SE 10.4 mph - N/A   Clear
4:53 AM 39.0 °F 34.8 °F 30.9 °F 73% 30.17 in 9.0 mi SSE 5.8 mph - N/A   Clear
5:53 AM 39.0 °F 32.8 °F 30.9 °F 73% 30.17 in 10.0 mi South 9.2 mph - N/A   Clear
6:53 AM 41.0 °F 33.9 °F 32.0 °F 70% 30.16 in 10.0 mi SSE 12.7 mph - N/A   Clear
7:53 AM 43.0 °F 37.7 °F 33.1 °F 68% 30.18 in 10.0 mi SSE 9.2 mph - N/A   Clear
8:53 AM 48.9 °F - 35.1 °F 59% 30.16 in 10.0 mi South 13.8 mph - N/A   Clear
9:53 AM 55.0 °F - 34.0 °F 45% 30.16 in 10.0 mi South 15.0 mph - N/A   Clear
10:53 AM 62.1 °F - 30.9 °F 31% 30.16 in 10.0 mi SSW 15.0 mph - N/A   Clear
11:53 AM 66.0 °F - 33.1 °F 29% 30.14 in 10.0 mi SSW 18.4 mph - N/A   Clear
12:53 PM 68.0 °F - 32.0 °F 26% 30.10 in 10.0 mi SSW 19.6 mph - N/A   Clear
1:53 PM 68.0 °F - 33.1 °F 27% 30.06 in 10.0 mi South 17.3 mph 23.0 mph N/A   Clear
2:53 PM 72.0 °F - 33.1 °F 24% 30.02 in 10.0 mi South 15.0 mph - N/A   Clear
3:53 PM 73.0 °F - 30.9 °F 21% 29.99 in 10.0 mi South 17.3 mph - N/A   Clear
4:53 PM 71.1 °F - 30.9 °F 23% 29.96 in 10.0 mi SSE 18.4 mph - N/A   Clear
5:53 PM 70.0 °F - 30.0 °F 23% 29.94 in 10.0 mi South 17.3 mph 25.3 mph N/A   Clear
6:53 PM 66.9 °F - 32.0 °F 27% 29.93 in 10.0 mi South 13.8 mph - N/A   Clear
7:53 PM 64.9 °F - 36.0 °F 34% 29.91 in 10.0 mi SSE 17.3 mph 25.3 mph N/A   Clear
8:53 PM 63.0 °F - 37.0 °F 38% 29.91 in 10.0 mi SSE 16.1 mph 24.2 mph N/A   Clear
9:53 PM 62.1 °F - 37.9 °F 41% 29.91 in 10.0 mi South 12.7 mph - N/A   Clear
10:53 PM 61.0 °F - 37.9 °F 42% 29.90 in 10.0 mi SSE 18.4 mph 23.0 mph N/A   Clear
11:53 PM 60.1 °F - 37.9 °F 44% 29.89 in 10.0 mi South 15.0 mph 26.5 mph N/A   Clear